This is the latest recevied weather packets stored in our database for station/object W3BRL. If no packets are shown the sender has not sent any weather packets the latest 10 day(s).
| Time | Temp. | Humidity | Pressure | Rain* | Wind** | Luminosity | Snow |
|---|---|---|---|---|---|---|---|
| 1778005816 | 22.78° C | 43% | 1006.3 hPa | 0 mm | - | 338 W/m² | - |
| 1778005512 | 23.33° C | 42% | 1006.4 hPa | 0 mm | - | 329 W/m² | - |
| 1778005209 | 23.33° C | 43% | 1006.1 hPa | 0 mm | - | 428 W/m² | - |
| 1778004905 | 22.78° C | 43% | 1006.4 hPa | 0 mm | - | 670 W/m² | - |
| 1778004603 | 22.78° C | 44% | 1006.5 hPa | 0 mm | - | 544 W/m² | - |
| 1778004298 | 22.78° C | 44% | 1006.3 hPa | 0 mm | - | 458 W/m² | - |
| 1778003995 | 22.22° C | 44% | 1006.4 hPa | 0 mm | - | 364 W/m² | - |
| 1778003691 | 22.78° C | 44% | 1006.5 hPa | 0 mm | - | 286 W/m² | - |
| 1778003388 | 22.78° C | 44% | 1006.3 hPa | 0 mm | - | 309 W/m² | - |
| 1778003085 | 22.78° C | 43% | 1006.2 hPa | 0 mm | - | 325 W/m² | - |
| 1778002781 | 22.78° C | 43% | 1006 hPa | 0 mm | - | 438 W/m² | - |
| 1778002478 | 22.78° C | 43% | 1006 hPa | 0 mm | - | 424 W/m² | - |
| 1778002175 | 22.78° C | 42% | 1005.9 hPa | 0 mm | - | 318 W/m² | - |
| 1778001874 | 22.78° C | 42% | 1005.7 hPa | 0 mm | - | 334 W/m² | - |
| 1778001572 | 22.78° C | 42% | 1005.8 hPa | 0 mm | - | 374 W/m² | - |
| 1778001270 | 22.78° C | 42% | 1005.8 hPa | 0 mm | - | 363 W/m² | - |
| 1778000966 | 22.78° C | 42% | 1005.8 hPa | 0 mm | - | 396 W/m² | - |
| 1778000663 | 22.78° C | 42% | 1006 hPa | 0 mm | - | 398 W/m² | - |
| 1778000358 | 22.78° C | 43% | 1005.9 hPa | 0 mm | - | 355 W/m² | - |
| 1778000055 | 22.78° C | 44% | 1005.9 hPa | 0 mm | - | 258 W/m² | - |
| 1777999750 | 22.22° C | 44% | 1005.9 hPa | 0 mm | - | 417 W/m² | - |
| 1777999447 | 22.78° C | 43% | 1006.1 hPa | 0 mm | - | 299 W/m² | - |
| 1777999145 | 22.78° C | 43% | 1006.3 hPa | 0 mm | - | 434 W/m² | - |
| 1777998844 | 22.78° C | 44% | 1006.5 hPa | 0 mm | - | 302 W/m² | - |
| 1777998542 | 22.78° C | 43% | 1006.2 hPa | 0 mm | - | 294 W/m² | - |
* Rain latest hour (hover to see other rain measurements)
** Current wind speed in m/s (hover to see current wind gust speed)